When you browse on this site, cookies collect data to enhance your experience and personalize the content and advertising you see.
Visit our Privacy Policy to learn more. By continuing to use the site, you agree to this use of cookies and data.
  • In France
  • List of Countries
  • For 7 days
  • Water Temperature
  • Satellite Maps
  • Weather Map
  • Weather Widgets
  • user-avatar
    Login

    Hourly Weather Potosi

    Today, 23 March, Saturday

    Time Temperature Precipitation Wind Pressure Humidity
    00:00 +8°C° 0 mm 2 mps 468 mmHg 72%
    01:00 +7°C° 0 mm 2 mps 468 mmHg 76%
    02:00 +7°C° 0 mm 2 mps 468 mmHg 80%
    03:00 +6°C° 0 mm 2 mps 468 mmHg 80%
    04:00 +6°C° 0 mm 2 mps 467 mmHg 80%
    05:00 +7°C° 0 mm 1 mps 467 mmHg 80%
    06:00 +7°C° 0 mm 1 mps 468 mmHg 77%
    07:00 +7°C° 0 mm 1 mps 468 mmHg 75%
    08:00 +8°C° 0 mm 1 mps 468 mmHg 72%
    09:00 +9°C° 0 mm 1 mps 469 mmHg 63%
    10:00 +11°C° 0 mm 1 mps 470 mmHg 53%
    11:00 +13°C° 0 mm 2 mps 471 mmHg 43%
    12:00 +14°C° 0 mm 2 mps 471 mmHg 41%
    13:00 +14°C° 0 mm 3 mps 471 mmHg 39%
    14:00 +14°C° 0 mm 4 mps 471 mmHg 37%
    15:00 +13°C° 0.8 mm 4 mps 470 mmHg 44%
    16:00 +12°C° 0.8 mm 4 mps 468 mmHg 50%
    17:00 +11°C° 0.8 mm 4 mps 467 mmHg 57%
    18:00 +10°C° 0.3 mm 4 mps 467 mmHg 61%
    19:00 +9°C° 0.3 mm 3 mps 467 mmHg 65%
    20:00 +8°C° 0.3 mm 2 mps 467 mmHg 69%
    21:00 +8°C° 0 mm 2 mps 467 mmHg 72%
    22:00 +7°C° 0 mm 2 mps 467 mmHg 75%
    23:00 +7°C° 0 mm 2 mps 467 mmHg 79%

    Tomorrow, 24 March, Sunday

    Time Temperature Precipitation Wind Pressure Humidity
    00:00 +7°C° 0 mm 2 mps 467 mmHg 81%
    01:00 +6°C° 0 mm 2 mps 467 mmHg 83%
    02:00 +6°C° 0 mm 2 mps 466 mmHg 85%
    03:00 +7°C° 0 mm 1 mps 466 mmHg 84%
    04:00 +7°C° 0 mm 1 mps 466 mmHg 84%
    05:00 +7°C° 0 mm 1 mps 466 mmHg 83%
    06:00 +7°C° 0 mm 1 mps 467 mmHg 81%
    07:00 +8°C° 0 mm 1 mps 467 mmHg 78%
    08:00 +7°C° 0 mm 0 mps 468 mmHg 76%
    09:00 +10°C° 0.5 mm 1 mps 469 mmHg 68%
    10:00 +10°C° 0.5 mm 2 mps 470 mmHg 60%
    11:00 +12°C° 0.5 mm 3 mps 471 mmHg 52%
    12:00 +12°C° 0.8 mm 3 mps 470 mmHg 53%
    13:00 +12°C° 0.8 mm 4 mps 470 mmHg 54%
    14:00 +12°C° 0.8 mm 4 mps 469 mmHg 55%
    15:00 +11°C° 1.2 mm 4 mps 468 mmHg 61%
    16:00 +10°C° 1.2 mm 4 mps 467 mmHg 67%
    17:00 +8°C° 1.2 mm 5 mps 466 mmHg 73%
    18:00 +7°C° 2 mm 4 mps 466 mmHg 78%
    19:00 +7°C° 2 mm 3 mps 466 mmHg 83%
    20:00 +5°C° 2 mm 3 mps 466 mmHg 88%
    21:00 +5°C° 3.2 mm 3 mps 466 mmHg 89%
    22:00 +6°C° 3.2 mm 2 mps 467 mmHg 90%
    23:00 +5°C° 3.2 mm 2 mps 467 mmHg 91%

    Day after tomorrow, 25 March, Monday

    Time Temperature Precipitation Wind Pressure Humidity
    00:00 +5°C° 1.8 mm 2 mps 467 mmHg 90%
    01:00 +5°C° 1.8 mm 2 mps 466 mmHg 89%
    02:00 +5°C° 1.8 mm 2 mps 466 mmHg 88%
    03:00 +5°C° 0.3 mm 2 mps 466 mmHg 86%
    04:00 +6°C° 0.3 mm 1 mps 466 mmHg 84%
    05:00 +5°C° 0.3 mm 0 mps 466 mmHg 82%
    06:00 +6°C° 0.2 mm 1 mps 466 mmHg 83%
    07:00 +6°C° 0.2 mm 1 mps 466 mmHg 83%
    08:00 +6°C° 0.2 mm 1 mps 467 mmHg 84%
    09:00 +6°C° 0.2 mm 2 mps 467 mmHg 80%
    10:00 +6°C° 0.2 mm 2 mps 468 mmHg 75%
    11:00 +7°C° 0.2 mm 2 mps 468 mmHg 71%
    12:00 +8°C° 0.4 mm 2 mps 468 mmHg 70%
    13:00 +8°C° 0.4 mm 3 mps 467 mmHg 69%
    14:00 +9°C° 0.4 mm 3 mps 467 mmHg 68%
    15:00 +9°C° 0.5 mm 3 mps 467 mmHg 68%
    16:00 +9°C° 0.5 mm 3 mps 466 mmHg 68%
    17:00 +9°C° 0.5 mm 3 mps 466 mmHg 67%
    18:00 +8°C° 0.2 mm 3 mps 466 mmHg 72%
    19:00 +7°C° 0.2 mm 3 mps 466 mmHg 77%
    20:00 +7°C° 0.2 mm 3 mps 466 mmHg 82%
    21:00 +5°C° 0 mm 3 mps 466 mmHg 82%
    22:00 +5°C° 0 mm 3 mps 466 mmHg 83%
    23:00 +6°C° 0 mm 2 mps 467 mmHg 84%

    26 March, Tuesday

    Time Temperature Precipitation Wind Pressure Humidity
    00:00 +6°C° 0 mm 2 mps 466 mmHg 84%
    01:00 +6°C° 0 mm 2 mps 466 mmHg 83%
    02:00 +7°C° 0 mm 1 mps 466 mmHg 83%
    03:00 +6°C° 0 mm 1 mps 466 mmHg 84%
    04:00 +6°C° 0 mm 1 mps 466 mmHg 86%
    05:00 +6°C° 0 mm 1 mps 466 mmHg 87%
    06:00 +6°C° 0 mm 1 mps 466 mmHg 85%
    07:00 +6°C° 0 mm 1 mps 467 mmHg 84%
    08:00 +6°C° 0 mm 2 mps 467 mmHg 82%
    09:00 +7°C° 0.1 mm 2 mps 468 mmHg 77%
    10:00 +8°C° 0.1 mm 2 mps 469 mmHg 71%
    11:00 +9°C° 0.1 mm 3 mps 469 mmHg 66%
    12:00 +9°C° 0.4 mm 3 mps 469 mmHg 65%
    13:00 +10°C° 0.4 mm 4 mps 469 mmHg 64%
    14:00 +10°C° 0.4 mm 4 mps 469 mmHg 63%
    15:00 +10°C° 0.5 mm 4 mps 468 mmHg 67%
    16:00 +8°C° 0.5 mm 4 mps 467 mmHg 71%
    17:00 +7°C° 0.5 mm 4 mps 467 mmHg 76%
    18:00 +6°C° 0.3 mm 4 mps 467 mmHg 80%
    19:00 +6°C° 0.3 mm 4 mps 467 mmHg 84%
    20:00 +5°C° 0.3 mm 3 mps 467 mmHg 87%
    21:00 +5°C° 0.2 mm 3 mps 467 mmHg 88%
    22:00 +4°C° 0.2 mm 3 mps 467 mmHg 90%
    23:00 +4°C° 0.2 mm 3 mps 468 mmHg 91%

    27 March, Wednesday

    Time Temperature Precipitation Wind Pressure Humidity
    00:00 +4°C° 0.2 mm 3 mps 467 mmHg 91%
    01:00 +4°C° 0.2 mm 3 mps 467 mmHg 91%
    02:00 +4°C° 0.2 mm 3 mps 467 mmHg 91%
    03:00 +4°C° 0.2 mm 3 mps 467 mmHg 91%
    04:00 +3°C° 0.2 mm 3 mps 467 mmHg 90%
    05:00 +3°C° 0.2 mm 3 mps 467 mmHg 90%
    06:00 +3°C° 0.1 mm 3 mps 467 mmHg 90%
    07:00 +3°C° 0.1 mm 3 mps 468 mmHg 90%
    08:00 +3°C° 0.1 mm 3 mps 468 mmHg 89%
    09:00 +4°C° 0.2 mm 3 mps 468 mmHg 86%
    10:00 +4°C° 0.2 mm 3 mps 469 mmHg 83%
    11:00 +5°C° 0.2 mm 3 mps 469 mmHg 80%
    12:00 +5°C° 0.1 mm 3 mps 469 mmHg 77%
    13:00 +6°C° 0.1 mm 4 mps 468 mmHg 73%
    14:00 +7°C° 0.1 mm 4 mps 468 mmHg 70%
    15:00 +7°C° 0 mm 4 mps 468 mmHg 70%
    16:00 +7°C° 0 mm 4 mps 468 mmHg 70%
    17:00 +7°C° 0 mm 4 mps 468 mmHg 70%
    18:00 +7°C° 0 mm 3 mps 468 mmHg 75%
    19:00 +7°C° 0 mm 3 mps 468 mmHg 81%
    20:00 +5°C° 0 mm 3 mps 468 mmHg 86%
    21:00 +5°C° 0 mm 3 mps 468 mmHg 87%
    22:00 +5°C° 0 mm 3 mps 468 mmHg 87%
    23:00 +4°C° 0 mm 3 mps 468 mmHg 88%

    28 March, Thursday

    Time Temperature Precipitation Wind Pressure Humidity
    00:00 +5°C° 0 mm 2 mps 468 mmHg 88%
    01:00 +5°C° 0 mm 2 mps 468 mmHg 88%
    02:00 +5°C° 0 mm 2 mps 468 mmHg 88%
    03:00 +5°C° 0 mm 2 mps 468 mmHg 87%
    04:00 +5°C° 0 mm 2 mps 468 mmHg 86%
    05:00 +5°C° 0 mm 2 mps 468 mmHg 84%
    06:00 +6°C° 0 mm 1 mps 468 mmHg 82%
    07:00 +7°C° 0 mm 1 mps 469 mmHg 80%
    08:00 +7°C° 0 mm 1 mps 469 mmHg 78%
    09:00 +7°C° 0 mm 2 mps 470 mmHg 71%
    10:00 +9°C° 0 mm 2 mps 471 mmHg 64%
    11:00 +12°C° 0 mm 2 mps 472 mmHg 57%
    12:00 +11°C° 0.2 mm 3 mps 471 mmHg 56%
    13:00 +12°C° 0.2 mm 4 mps 471 mmHg 54%
    14:00 +13°C° 0.2 mm 4 mps 471 mmHg 52%
    15:00 +12°C° 0.3 mm 4 mps 471 mmHg 56%
    16:00 +12°C° 0.3 mm 4 mps 470 mmHg 60%
    17:00 +11°C° 0.3 mm 4 mps 470 mmHg 64%
    18:00 +10°C° 0.3 mm 4 mps 469 mmHg 70%
    19:00 +8°C° 0.3 mm 4 mps 469 mmHg 75%
    20:00 +8°C° 0.3 mm 3 mps 469 mmHg 81%
    21:00 +8°C° 0.2 mm 3 mps 469 mmHg 82%
    22:00 +7°C° 0.2 mm 3 mps 469 mmHg 84%
    23:00 +7°C° 0.2 mm 2 mps 469 mmHg 85%
    Show more